Time,TemperatureF,DewpointF,PressureIn,WindDirection,WindDirectionDegrees,WindSpeedMPH,WindSpeedGustMPH,Humidity,HourlyPrecipIn,Conditions,Clouds,dailyrainin,SoftwareType,DateUTC
2013-07-19 00:01:00,73.6,55.9,26.95,West,260,0.0,0.0,54,0.00,CLR,,0.00,WeatherDisplay:10.37,2013-07-19 04:01:00,
2013-07-19 00:02:00,73.6,55.9,26.95,West,260,0.0,0.0,54,0.00,CLR,,0.00,WeatherDisplay:10.37,2013-07-19 04:02:00,
2013-07-19 00:07:00,73.6,55.9,26.95,West,260,0.0,0.0,54,0.00,CLR,,0.00,WeatherDisplay:10.37,2013-07-19 04:07:00,
2013-07-19 00:12:00,73.6,55.9,26.95,West,260,0.0,0.0,54,0.00,CLR,,0.00,WeatherDisplay:10.37,2013-07-19 04:12:00,
2013-07-19 00:17:00,73.6,55.9,26.95,West,260,0.0,0.0,54,0.00,CLR,,0.00,WeatherDisplay:10.37,2013-07-19 04:17:00,
2013-07-19 00:22:00,73.4,55.7,26.95,West,260,0.0,0.0,54,0.00,CLR,,0.00,WeatherDisplay:10.37,2013-07-19 04:22:00,
2013-07-19 00:27:00,73.4,55.7,26.95,West,260,0.0,0.0,54,0.00,CLR,,0.00,WeatherDisplay:10.37,2013-07-19 04:27:00,
2013-07-19 00:32:00,73.4,55.7,26.95,West,260,0.0,0.0,54,0.00,CLR,,0.00,WeatherDisplay:10.37,2013-07-19 04:32:00,
2013-07-19 00:37:00,73.2,56.1,26.95,West,260,0.0,0.0,55,0.00,CLR,,0.00,WeatherDisplay:10.37,2013-07-19 04:37:00,
2013-07-19 00:42:00,73.2,56.1,26.95,West,260,0.0,0.0,55,0.00,CLR,,0.00,WeatherDisplay:10.37,2013-07-19 04:42:00,
2013-07-19 00:47:00,73.2,56.1,26.95,West,260,0.0,0.0,55,0.00,CLR,,0.00,WeatherDisplay:10.37,2013-07-19 04:47:00,
2013-07-19 00:52:00,73.2,56.1,26.95,West,260,0.0,0.0,55,0.00,CLR,,0.00,WeatherDisplay:10.37,2013-07-19 04:52:00,
2013-07-19 00:57:00,73.2,56.1,26.95,West,260,0.0,0.0,55,0.00,CLR,,0.00,WeatherDisplay:10.37,2013-07-19 04:57:00,
2013-07-19 01:02:00,73.2,56.1,26.95,West,260,0.0,0.0,55,0.00,CLR,,0.00,WeatherDisplay:10.37,2013-07-19 05:02:00,
2013-07-19 01:07:00,73.0,55.9,26.95,West,260,0.0,0.0,55,0.00,CLR,,0.00,WeatherDisplay:10.37,2013-07-19 05:07:00,
2013-07-19 01:12:00,73.0,56.4,26.95,West,259,0.0,0.0,56,0.00,CLR,,0.00,WeatherDisplay:10.37,2013-07-19 05:12:00,
2013-07-19 01:17:00,73.0,55.9,26.95,West,260,0.0,0.0,55,0.00,CLR,,0.00,WeatherDisplay:10.37,2013-07-19 05:17:00,
2013-07-19 01:22:00,73.2,56.6,26.95,West,260,0.0,0.0,56,0.00,CLR,,0.00,WeatherDisplay:10.37,2013-07-19 05:22:00,
2013-07-19 01:27:00,73.0,56.4,26.95,West,260,0.0,0.0,56,0.00,CLR,,0.00,WeatherDisplay:10.37,2013-07-19 05:27:00,
2013-07-19 01:32:00,73.0,56.9,26.95,West,260,0.0,0.0,57,0.00,CLR,,0.00,WeatherDisplay:10.37,2013-07-19 05:32:00,
2013-07-19 01:37:00,73.0,57.4,26.95,West,260,0.0,0.0,58,0.00,CLR,,0.00,WeatherDisplay:10.37,2013-07-19 05:37:00,
2013-07-19 01:42:00,73.0,57.9,26.95,West,260,0.0,0.0,59,0.00,CLR,,0.00,WeatherDisplay:10.37,2013-07-19 05:42:00,
2013-07-19 01:47:00,73.0,57.9,26.95,West,260,0.0,0.0,59,0.00,CLR,,0.00,WeatherDisplay:10.37,2013-07-19 05:47:00,
2013-07-19 01:52:00,73.0,58.3,26.95,West,260,0.0,0.0,60,0.00,CLR,,0.00,WeatherDisplay:10.37,2013-07-19 05:52:00,
2013-07-19 01:57:00,73.0,58.3,26.95,West,260,0.0,0.0,60,0.00,CLR,,0.00,WeatherDisplay:10.37,2013-07-19 05:57:00,
2013-07-19 02:02:00,72.9,58.2,26.95,West,260,0.0,0.0,60,0.00,CLR,,0.00,WeatherDisplay:10.37,2013-07-19 06:02:00,
2013-07-19 02:07:00,73.0,58.3,26.95,West,260,0.0,0.0,60,0.00,CLR,,0.00,WeatherDisplay:10.37,2013-07-19 06:07:00,
2013-07-19 02:12:00,73.2,60.3,26.95,West,260,0.0,0.0,64,0.00,CLR,,0.00,WeatherDisplay:10.37,2013-07-19 06:12:00,
2013-07-19 02:17:00,73.0,61.0,26.95,West,260,0.0,0.0,66,0.00,CLR,,0.00,WeatherDisplay:10.37,2013-07-19 06:17:00,
2013-07-19 02:22:00,73.0,61.0,26.95,West,260,0.0,0.0,66,0.00,CLR,,0.00,WeatherDisplay:10.37,2013-07-19 06:22:00,
2013-07-19 02:27:00,73.0,61.0,26.95,West,260,0.0,0.0,66,0.00,CLR,,0.00,WeatherDisplay:10.37,2013-07-19 06:27:00,
2013-07-19 02:32:00,73.0,61.4,26.95,West,260,0.0,0.0,67,0.00,CLR,,0.00,WeatherDisplay:10.37,2013-07-19 06:32:00,
2013-07-19 02:37:00,73.0,61.4,26.95,West,260,0.0,0.0,67,0.00,CLR,,0.00,WeatherDisplay:10.37,2013-07-19 06:37:00,
2013-07-19 02:42:00,73.0,61.4,26.95,West,260,0.0,0.0,67,0.00,CLR,,0.00,WeatherDisplay:10.37,2013-07-19 06:42:00,
2013-07-19 02:47:00,73.0,61.4,26.95,West,260,0.0,0.0,67,0.00,CLR,,0.00,WeatherDisplay:10.37,2013-07-19 06:47:00,
2013-07-19 02:52:00,73.0,62.3,26.95,West,260,0.0,0.0,69,0.00,CLR,,0.00,WeatherDisplay:10.37,2013-07-19 06:52:00,
2013-07-19 02:57:00,73.0,63.1,26.95,West,260,0.0,0.0,71,0.00,CLR,,0.00,WeatherDisplay:10.37,2013-07-19 06:57:00,
2013-07-19 03:02:00,73.0,63.1,26.95,West,260,0.0,0.0,71,0.00,CLR,,0.00,WeatherDisplay:10.37,2013-07-19 07:02:00,
2013-07-19 03:07:00,73.2,63.2,26.95,West,260,0.0,0.0,71,0.00,CLR,,0.00,WeatherDisplay:10.37,2013-07-19 07:07:00,
2013-07-19 03:12:00,73.0,63.1,26.95,West,260,0.0,0.0,71,0.00,CLR,,0.00,WeatherDisplay:10.37,2013-07-19 07:12:00,
2013-07-19 03:17:00,73.0,62.3,26.95,West,260,0.0,0.0,69,0.00,CLR,,0.00,WeatherDisplay:10.37,2013-07-19 07:17:00,
2013-07-19 03:22:00,73.0,62.3,26.95,West,260,0.0,0.0,69,0.00,CLR,,0.00,WeatherDisplay:10.37,2013-07-19 07:22:00,
2013-07-19 03:27:00,72.9,62.1,26.95,West,260,0.0,0.0,69,0.00,CLR,,0.00,WeatherDisplay:10.37,2013-07-19 07:27:00,
2013-07-19 03:32:00,72.9,62.9,26.95,West,260,0.0,0.0,71,0.00,CLR,,0.00,WeatherDisplay:10.37,2013-07-19 07:32:00,
2013-07-19 03:37:00,72.9,62.9,26.95,West,260,0.0,0.0,71,0.00,CLR,,0.00,WeatherDisplay:10.37,2013-07-19 07:37:00,
2013-07-19 03:42:00,72.9,63.3,26.95,West,260,0.0,0.0,72,0.00,CLR,,0.00,WeatherDisplay:10.37,2013-07-19 07:42:00,
2013-07-19 03:47:00,72.9,64.1,26.95,West,260,0.0,0.0,74,0.00,CLR,,0.00,WeatherDisplay:10.37,2013-07-19 07:47:00,
2013-07-19 03:52:00,73.0,64.3,26.95,West,260,0.0,0.0,74,0.00,CLR,,0.00,WeatherDisplay:10.37,2013-07-19 07:52:00,
2013-07-19 03:57:00,73.0,64.3,26.95,West,260,0.0,0.0,74,0.00,CLR,,0.00,WeatherDisplay:10.37,2013-07-19 07:57:00,
2013-07-19 04:02:00,73.0,64.6,26.95,West,260,0.0,0.0,75,0.00,CLR,,0.00,WeatherDisplay:10.37,2013-07-19 08:02:00,
2013-07-19 04:07:00,73.0,64.6,26.95,West,260,0.0,0.0,75,0.00,CLR,,0.00,WeatherDisplay:10.37,2013-07-19 08:07:00,
2013-07-19 04:12:00,73.0,64.6,26.95,West,260,0.0,0.0,75,0.00,CLR,,0.00,WeatherDisplay:10.37,2013-07-19 08:12:00,
2013-07-19 04:17:00,73.0,64.3,26.95,West,260,0.0,0.0,74,0.00,CLR,,0.00,WeatherDisplay:10.37,2013-07-19 08:17:00,
2013-07-19 04:22:00,73.0,64.6,26.95,West,260,0.0,0.0,75,0.00,CLR,,0.00,WeatherDisplay:10.37,2013-07-19 08:22:00,
2013-07-19 04:27:00,73.0,64.6,26.95,West,260,0.0,0.0,75,0.00,CLR,,0.00,WeatherDisplay:10.37,2013-07-19 08:27:00,
2013-07-19 04:32:00,73.0,64.3,26.95,West,260,0.0,0.0,74,0.00,CLR,,0.00,WeatherDisplay:10.37,2013-07-19 08:32:00,
2013-07-19 04:37:00,73.0,64.3,26.95,West,260,0.0,0.0,74,0.00,CLR,,0.00,WeatherDisplay:10.37,2013-07-19 08:37:00,
2013-07-19 04:42:00,73.0,64.3,26.95,West,259,0.0,0.0,74,0.00,CLR,,0.00,WeatherDisplay:10.37,2013-07-19 08:42:00,
2013-07-19 04:47:00,73.0,64.3,26.95,West,260,0.0,0.0,74,0.00,CLR,,0.00,WeatherDisplay:10.37,2013-07-19 08:47:00,
2013-07-19 04:52:00,73.0,64.3,26.95,West,260,0.0,0.0,74,0.00,CLR,,0.00,WeatherDisplay:10.37,2013-07-19 08:52:00,
2013-07-19 04:57:00,73.0,64.6,26.95,West,260,0.0,0.0,75,0.00,CLR,,0.00,WeatherDisplay:10.37,2013-07-19 08:57:00,
2013-07-19 05:02:00,73.0,64.6,26.95,West,260,0.0,0.0,75,0.00,CLR,,0.00,WeatherDisplay:10.37,2013-07-19 09:02:00,
2013-07-19 05:07:00,72.9,64.8,26.95,West,260,0.0,0.0,76,0.00,CLR,,0.00,WeatherDisplay:10.37,2013-07-19 09:07:00,
2013-07-19 05:12:00,72.9,64.8,26.95,West,260,0.0,0.0,76,0.00,CLR,,0.00,WeatherDisplay:10.37,2013-07-19 09:12:00,
2013-07-19 05:17:00,72.9,64.8,26.95,West,260,0.0,0.0,76,0.00,CLR,,0.00,WeatherDisplay:10.37,2013-07-19 09:17:00,
2013-07-19 05:22:00,73.0,65.4,26.95,West,260,0.0,0.0,77,0.00,CLR,,0.00,WeatherDisplay:10.37,2013-07-19 09:22:00,
2013-07-19 05:27:00,73.0,65.8,26.95,West,260,0.0,0.0,78,0.00,CLR,,0.00,WeatherDisplay:10.37,2013-07-19 09:27:00,
2013-07-19 05:32:00,73.0,66.1,26.95,West,259,0.0,0.0,79,0.00,CLR,,0.00,WeatherDisplay:10.37,2013-07-19 09:32:00,
2013-07-19 05:37:00,73.0,66.1,26.95,West,260,0.0,0.0,79,0.00,CLR,,0.00,WeatherDisplay:10.37,2013-07-19 09:37:00,
2013-07-19 05:42:00,73.0,66.1,26.95,West,260,0.0,0.0,79,0.00,CLR,,0.00,WeatherDisplay:10.37,2013-07-19 09:42:00,
2013-07-19 05:47:00,73.0,66.1,26.95,West,260,0.0,0.0,79,0.00,CLR,,0.00,WeatherDisplay:10.37,2013-07-19 09:47:00,
2013-07-19 05:52:00,73.2,66.3,26.95,West,260,0.0,0.0,79,0.00,CLR,,0.00,WeatherDisplay:10.37,2013-07-19 09:52:00,
2013-07-19 05:57:00,73.2,66.3,26.95,West,260,0.0,0.0,79,0.00,CLR,,0.00,WeatherDisplay:10.37,2013-07-19 09:57:00,
2013-07-19 06:02:00,73.2,66.7,26.95,West,260,0.0,0.0,80,0.00,CLR,,0.00,WeatherDisplay:10.37,2013-07-19 10:02:00,
2013-07-19 06:07:00,73.4,66.5,26.95,West,260,0.0,0.0,79,0.00,CLR,,0.00,WeatherDisplay:10.37,2013-07-19 10:07:00,
2013-07-19 06:12:00,73.6,67.0,26.95,West,260,0.0,0.0,80,0.00,CLR,,0.00,WeatherDisplay:10.37,2013-07-19 10:12:00,
2013-07-19 06:17:00,73.6,67.0,26.95,West,260,0.0,0.0,80,0.00,CLR,,0.00,WeatherDisplay:10.37,2013-07-19 10:17:00,
2013-07-19 06:22:00,73.8,67.2,26.95,West,260,0.0,0.0,80,0.00,CLR,,0.00,WeatherDisplay:10.37,2013-07-19 10:22:00,
2013-07-19 06:27:00,74.1,67.6,26.95,West,260,0.0,0.0,80,0.00,CLR,,0.00,WeatherDisplay:10.37,2013-07-19 10:27:00,
2013-07-19 06:32:00,74.3,67.7,26.95,West,260,0.0,0.0,80,0.00,CLR,,0.00,WeatherDisplay:10.37,2013-07-19 10:32:00,
2013-07-19 06:37:00,74.7,68.8,26.95,West,260,0.0,0.0,82,0.00,CLR,,0.00,WeatherDisplay:10.37,2013-07-19 10:37:00,
2013-07-19 06:42:00,74.8,68.6,26.95,West,260,0.0,0.0,81,0.00,CLR,,0.00,WeatherDisplay:10.37,2013-07-19 10:42:00,
2013-07-19 06:47:00,75.2,68.6,26.95,West,260,0.0,0.0,80,0.00,CLR,,0.00,WeatherDisplay:10.37,2013-07-19 10:47:00,
2013-07-19 06:52:00,75.6,69.0,26.95,West,260,0.0,0.0,80,0.00,CLR,,0.00,WeatherDisplay:10.37,2013-07-19 10:52:00,
2013-07-19 06:57:00,75.9,69.3,26.95,West,260,0.0,0.0,80,0.00,CLR,,0.00,WeatherDisplay:10.37,2013-07-19 10:57:00,
2013-07-19 07:02:00,76.3,69.3,26.95,West,260,0.0,0.0,79,0.00,CLR,,0.00,WeatherDisplay:10.37,2013-07-19 11:02:00,
2013-07-19 07:07:00,76.5,69.5,26.95,West,260,0.0,0.0,79,0.00,CLR,,0.00,WeatherDisplay:10.37,2013-07-19 11:07:00,
2013-07-19 07:12:00,76.8,69.4,26.95,West,260,0.0,0.0,78,0.00,CLR,,0.00,WeatherDisplay:10.37,2013-07-19 11:12:00,
2013-07-19 07:17:00,77.0,69.2,26.95,West,260,0.0,0.0,77,0.00,CLR,,0.00,WeatherDisplay:10.37,2013-07-19 11:17:00,
2013-07-19 07:22:00,77.4,68.8,26.95,West,260,0.0,0.0,75,0.00,CLR,,0.00,WeatherDisplay:10.37,2013-07-19 11:22:00,
2013-07-19 07:27:00,77.5,68.6,26.95,West,260,0.0,0.0,74,0.00,CLR,,0.00,WeatherDisplay:10.37,2013-07-19 11:27:00,
2013-07-19 07:32:00,77.7,68.4,26.95,West,260,0.0,0.0,73,0.00,CLR,,0.00,WeatherDisplay:10.37,2013-07-19 11:32:00,
2013-07-19 07:37:00,77.9,68.1,26.95,West,260,0.0,0.0,72,0.00,CLR,,0.00,WeatherDisplay:10.37,2013-07-19 11:37:00,
2013-07-19 07:42:00,78.3,67.7,26.95,West,260,0.0,0.0,70,0.00,CLR,,0.00,WeatherDisplay:10.37,2013-07-19 11:42:00,
2013-07-19 07:47:00,78.4,68.3,26.95,West,260,0.0,0.0,71,0.00,CLR,,0.00,WeatherDisplay:10.37,2013-07-19 11:47:00,
2013-07-19 07:52:00,78.8,65.6,26.95,West,260,0.0,0.0,64,0.00,CLR,,0.00,WeatherDisplay:10.37,2013-07-19 11:52:00,
2013-07-19 07:57:00,79.2,65.0,26.95,West,260,0.0,0.0,62,0.00,CLR,,0.00,WeatherDisplay:10.37,2013-07-19 11:57:00,
2013-07-19 08:02:00,79.5,65.4,26.95,West,260,0.0,0.0,62,0.00,CLR,,0.00,WeatherDisplay:10.37,2013-07-19 12:02:00,
2013-07-19 08:07:00,79.5,60.4,26.95,West,260,0.0,0.0,52,0.00,CLR,,0.00,WeatherDisplay:10.37,2013-07-19 12:07:00,
2013-07-19 08:12:00,79.2,56.6,26.95,West,260,2.3,0.0,46,0.00,CLR,,0.00,WeatherDisplay:10.37,2013-07-19 12:12:00,
2013-07-19 08:17:00,79.7,57.1,26.95,West,260,0.0,0.0,46,0.00,CLR,,0.00,WeatherDisplay:10.37,2013-07-19 12:17:00,
2013-07-19 08:22:00,79.7,55.2,26.95,West,260,0.0,0.0,43,0.00,CLR,,0.00,WeatherDisplay:10.37,2013-07-19 12:22:00,
2013-07-19 08:27:00,80.4,53.9,26.95,West,260,2.3,0.0,40,0.00,CLR,,0.00,WeatherDisplay:10.37,2013-07-19 12:27:00,
2013-07-19 08:32:00,81.0,49.9,26.95,WNW,290,3.5,0.0,34,0.00,CLR,,0.00,WeatherDisplay:10.37,2013-07-19 12:32:00,
2013-07-19 08:37:00,81.7,48.9,26.95,North,1,3.5,0.0,32,0.00,CLR,,0.00,WeatherDisplay:10.37,2013-07-19 12:37:00,
2013-07-19 08:42:00,82.0,50.1,26.95,North,1,0.0,0.0,33,0.00,CLR,,0.00,WeatherDisplay:10.37,2013-07-19 12:42:00,
2013-07-19 08:47:00,82.2,50.2,26.95,NNE,15,0.0,0.0,33,0.00,CLR,,0.00,WeatherDisplay:10.37,2013-07-19 12:47:00,
2013-07-19 08:52:00,82.4,48.7,26.95,NNE,17,2.7,0.0,31,0.00,CLR,,0.00,WeatherDisplay:10.37,2013-07-19 12:52:00,
2013-07-19 08:57:00,82.8,48.2,26.95,North,8,0.0,0.0,30,0.00,CLR,,0.00,WeatherDisplay:10.37,2013-07-19 12:57:00,
2013-07-19 09:02:00,83.3,47.7,26.95,West,263,2.3,0.0,29,0.00,CLR,,0.00,WeatherDisplay:10.37,2013-07-19 13:02:00,
2013-07-19 09:07:00,83.7,48.0,26.95,NW,319,2.3,0.0,29,0.00,CLR,,0.00,WeatherDisplay:10.37,2013-07-19 13:07:00,
2013-07-19 09:12:00,84.0,48.3,26.95,WNW,290,0.0,0.0,29,0.00,CLR,,0.00,WeatherDisplay:10.37,2013-07-19 13:12:00,
2013-07-19 09:17:00,84.0,48.3,26.95,WNW,290,0.0,0.0,29,0.00,CLR,,0.00,WeatherDisplay:10.37,2013-07-19 13:17:00,
2013-07-19 09:22:00,84.0,48.3,26.95,NNE,33,2.3,0.0,29,0.00,CLR,,0.00,WeatherDisplay:10.37,2013-07-19 13:22:00,
2013-07-19 09:26:00,84.6,47.9,26.95,NNE,33,0.0,0.0,28,0.00,CLR,,0.00,WeatherDisplay:10.37,2013-07-19 13:26:00,
2013-07-19 09:31:00,84.7,48.0,26.95,SW,221,3.5,3.5,28,0.00,CLR,,0.00,WeatherDisplay:10.37,2013-07-19 13:31:00,
2013-07-19 09:36:00,84.9,46.2,26.95,West,261,3.5,3.5,26,0.00,CLR,,0.00,WeatherDisplay:10.37,2013-07-19 13:36:00,
2013-07-19 09:41:00,85.5,48.6,26.95,WNW,295,3.5,0.0,28,0.00,CLR,,0.00,WeatherDisplay:10.37,2013-07-19 13:41:00,
2013-07-19 09:46:00,85.3,46.5,26.95,WSW,239,2.7,2.7,26,0.00,CLR,,0.00,WeatherDisplay:10.37,2013-07-19 13:46:00,
2013-07-19 09:51:00,85.8,47.0,26.95,West,266,0.0,0.0,26,0.00,CLR,,0.00,WeatherDisplay:10.37,2013-07-19 13:51:00,
2013-07-19 09:56:00,86.2,47.3,26.95,West,268,2.3,0.0,26,0.00,CLR,,0.00,WeatherDisplay:10.37,2013-07-19 13:56:00,
2013-07-19 10:01:00,87.4,48.3,26.95,WSW,248,3.5,0.0,26,0.00,CLR,,0.00,WeatherDisplay:10.37,2013-07-19 14:01:00,
2013-07-19 10:06:00,88.3,45.8,26.95,NW,306,2.3,2.3,23,0.00,CLR,,0.00,WeatherDisplay:10.37,2013-07-19 14:06:00,
2013-07-19 10:11:00,87.6,45.2,26.95,West,263,3.5,0.0,23,0.00,CLR,,0.00,WeatherDisplay:10.37,2013-07-19 14:11:00,
2013-07-19 10:16:00,87.6,45.2,26.95,West,263,0.0,0.0,23,0.00,CLR,,0.00,WeatherDisplay:10.37,2013-07-19 14:16:00,
2013-07-19 10:21:00,87.4,45.1,26.95,WNW,295,2.3,0.0,23,0.00,CLR,,0.00,WeatherDisplay:10.37,2013-07-19 14:21:00,
2013-07-19 10:26:00,87.8,45.4,26.95,NNW,336,3.1,3.1,23,0.00,CLR,,0.00,WeatherDisplay:10.37,2013-07-19 14:26:00,
2013-07-19 10:31:00,88.0,45.5,26.95,SSE,158,2.3,0.0,23,0.00,CLR,,0.00,WeatherDisplay:10.37,2013-07-19 14:31:00,
2013-07-19 10:36:00,88.2,45.7,26.95,West,276,3.5,0.0,23,0.00,CLR,,0.00,WeatherDisplay:10.37,2013-07-19 14:36:00,
2013-07-19 10:41:00,88.7,46.1,26.95,NW,308,3.5,3.5,23,0.00,CLR,,0.00,WeatherDisplay:10.37,2013-07-19 14:41:00,
2013-07-19 10:46:00,89.2,46.6,26.95,NW,307,3.5,0.0,23,0.00,CLR,,0.00,WeatherDisplay:10.37,2013-07-19 14:46:00,
2013-07-19 10:51:00,89.2,46.6,26.95,SW,235,4.6,4.6,23,0.00,CLR,,0.00,WeatherDisplay:10.37,2013-07-19 14:51:00,
2013-07-19 10:56:00,89.6,45.7,26.95,North,357,3.5,0.0,22,0.00,CLR,,0.00,WeatherDisplay:10.37,2013-07-19 14:56:00,
2013-07-19 11:01:00,90.0,46.0,26.95,WNW,298,5.8,0.0,22,0.00,CLR,,0.00,WeatherDisplay:10.37,2013-07-19 15:01:00,
2013-07-19 11:06:00,89.8,45.9,26.95,WSW,247,3.5,3.5,22,0.00,CLR,,0.00,WeatherDisplay:10.37,2013-07-19 15:06:00,
2013-07-19 11:11:00,90.0,46.0,26.95,WNW,288,3.5,3.5,22,0.00,CLR,,0.00,WeatherDisplay:10.37,2013-07-19 15:11:00,
2013-07-19 11:16:00,90.7,46.6,26.95,WNW,302,5.8,5.8,22,0.00,CLR,,0.00,WeatherDisplay:10.37,2013-07-19 15:16:00,
2013-07-19 11:21:00,91.2,47.1,26.95,WNW,303,4.6,4.6,22,0.00,CLR,,0.00,WeatherDisplay:10.37,2013-07-19 15:21:00,
2013-07-19 11:26:00,91.0,46.9,26.95,WNW,289,2.3,0.0,22,0.00,CLR,,0.00,WeatherDisplay:10.37,2013-07-19 15:26:00,
2013-07-19 11:31:00,91.4,47.2,26.95,West,273,3.5,0.0,22,0.00,CLR,,0.00,WeatherDisplay:10.37,2013-07-19 15:31:00,
2013-07-19 11:36:00,91.6,47.4,26.95,ENE,69,3.1,0.0,22,0.00,CLR,,0.00,WeatherDisplay:10.37,2013-07-19 15:36:00,
2013-07-19 11:41:00,91.2,47.1,26.95,NNW,331,0.0,0.0,22,0.00,CLR,,0.00,WeatherDisplay:10.37,2013-07-19 15:41:00,
2013-07-19 11:46:00,93.9,48.1,26.95,WSW,253,3.5,0.0,21,0.00,CLR,,0.00,WeatherDisplay:10.37,2013-07-19 15:46:00,
2013-07-19 11:51:00,95.4,49.2,26.95,NW,314,3.5,4.0,21,0.00,CLR,,0.00,WeatherDisplay:10.37,2013-07-19 15:51:00,
2013-07-19 11:56:00,97.7,51.2,26.95,North,357,2.7,0.0,21,0.00,CLR,,0.00,WeatherDisplay:10.37,2013-07-19 15:56:00,
2013-07-19 12:01:00,99.1,51.0,26.95,West,273,2.3,0.0,20,0.00,CLR,,0.00,WeatherDisplay:10.37,2013-07-19 16:01:00,
2013-07-19 12:04:00,98.8,50.7,26.95,West,275,5.8,5.8,20,0.00,CLR,,0.00,WeatherDisplay:10.37,2013-07-19 16:04:00,
2013-07-19 12:09:00,100.0,51.8,26.95,SW,232,5.8,5.8,20,0.00,CLR,,0.00,WeatherDisplay:10.37,2013-07-19 16:09:00,
2013-07-19 12:14:00,99.9,51.6,26.95,NW,304,5.8,5.8,20,0.00,CLR,,0.00,WeatherDisplay:10.37,2013-07-19 16:14:00,
2013-07-19 12:19:00,101.8,53.2,26.95,WNW,288,2.3,0.0,20,0.00,CLR,,0.00,WeatherDisplay:10.37,2013-07-19 16:19:00,
2013-07-19 12:24:00,101.7,53.1,26.95,West,273,5.8,5.8,20,0.00,CLR,,0.00,WeatherDisplay:10.37,2013-07-19 16:24:00,
2013-07-19 12:29:00,102.0,53.4,26.95,NW,307,5.8,5.8,20,0.00,CLR,,0.00,WeatherDisplay:10.37,2013-07-19 16:29:00,
2013-07-19 12:34:00,101.5,52.9,26.95,NW,319,3.5,0.0,20,0.00,CLR,,0.00,WeatherDisplay:10.37,2013-07-19 16:34:00,
2013-07-19 12:39:00,100.8,52.4,26.95,NW,326,5.8,5.8,20,0.00,CLR,,0.00,WeatherDisplay:10.37,2013-07-19 16:39:00,
2013-07-19 12:44:00,99.0,50.9,26.95,WSW,255,5.8,5.8,20,0.00,CLR,,0.00,WeatherDisplay:10.37,2013-07-19 16:44:00,
2013-07-19 12:49:00,97.0,50.6,26.95,WNW,287,3.6,3.6,21,0.00,CLR,,0.00,WeatherDisplay:10.37,2013-07-19 16:49:00,
2013-07-19 12:54:00,96.4,50.1,26.95,North,357,3.5,3.5,21,0.00,CLR,,0.00,WeatherDisplay:10.37,2013-07-19 16:54:00,
2013-07-19 12:59:00,95.9,49.7,26.95,NW,317,3.5,0.0,21,0.00,CLR,,0.00,WeatherDisplay:10.37,2013-07-19 16:59:00,
2013-07-19 13:04:00,96.6,50.3,26.95,SW,229,4.6,4.6,21,0.00,CLR,,0.00,WeatherDisplay:10.37,2013-07-19 17:04:00,
2013-07-19 13:09:00,97.5,51.0,26.95,SW,227,2.3,2.3,21,0.00,CLR,,0.00,WeatherDisplay:10.37,2013-07-19 17:09:00,
2013-07-19 13:14:00,100.9,52.5,26.95,NNE,33,3.5,3.5,20,0.00,CLR,,0.00,WeatherDisplay:10.37,2013-07-19 17:14:00,
2013-07-19 13:19:00,100.0,51.8,26.95,WNW,293,5.8,5.8,20,0.00,CLR,,0.00,WeatherDisplay:10.37,2013-07-19 17:19:00,
2013-07-19 13:24:00,99.7,51.5,26.95,West,272,3.5,3.5,20,0.00,CLR,,0.00,WeatherDisplay:10.37,2013-07-19 17:24:00,
2013-07-19 13:29:00,97.7,51.2,26.95,NW,310,5.4,5.4,21,0.00,CLR,,0.00,WeatherDisplay:10.37,2013-07-19 17:29:00,
2013-07-19 13:34:00,95.7,49.5,26.95,WSW,255,5.8,5.8,21,0.00,CLR,,0.00,WeatherDisplay:10.37,2013-07-19 17:34:00,
2013-07-19 13:39:00,95.9,49.7,26.95,SW,217,4.6,4.6,21,0.00,CLR,,0.00,WeatherDisplay:10.37,2013-07-19 17:39:00,
2013-07-19 13:44:00,95.5,49.4,26.95,NW,320,3.5,4.9,21,0.00,CLR,,0.00,WeatherDisplay:10.37,2013-07-19 17:44:00,
2013-07-19 13:49:00,94.5,48.5,26.95,West,262,3.5,3.5,21,0.00,CLR,,0.00,WeatherDisplay:10.37,2013-07-19 17:49:00,
2013-07-19 13:54:00,95.4,49.2,26.95,WNW,291,3.5,0.0,21,0.00,CLR,,0.00,WeatherDisplay:10.37,2013-07-19 17:54:00,
2013-07-19 13:59:00,95.5,49.4,26.95,WSW,253,3.5,3.6,21,0.00,CLR,,0.00,WeatherDisplay:10.37,2013-07-19 17:59:00,
2013-07-19 14:04:00,98.2,51.6,26.95,WNW,292,3.5,0.0,21,0.00,CLR,,0.00,WeatherDisplay:10.37,2013-07-19 18:04:00,
2013-07-19 14:09:00,97.0,50.6,26.95,NW,307,4.6,4.6,21,0.00,CLR,,0.00,WeatherDisplay:10.37,2013-07-19 18:09:00,
2013-07-19 14:14:00,97.3,50.9,26.95,West,267,5.8,5.8,21,0.00,CLR,,0.00,WeatherDisplay:10.37,2013-07-19 18:14:00,
2013-07-19 14:19:00,98.8,50.7,26.95,WNW,293,5.8,5.8,20,0.00,CLR,,0.00,WeatherDisplay:10.37,2013-07-19 18:19:00,
2013-07-19 14:24:00,101.3,52.8,26.95,NW,306,8.1,8.1,20,0.00,CLR,,0.00,WeatherDisplay:10.37,2013-07-19 18:24:00,
2013-07-19 14:29:00,103.3,53.0,26.95,WNW,294,5.8,5.8,19,0.00,CLR,,0.00,WeatherDisplay:10.37,2013-07-19 18:29:00,
2013-07-19 14:34:00,99.1,51.0,26.95,SSW,202,3.5,3.5,20,0.00,CLR,,0.00,WeatherDisplay:10.37,2013-07-19 18:34:00,
2013-07-19 14:39:00,96.4,50.1,26.95,WSW,239,3.5,0.0,21,0.00,CLR,,0.00,WeatherDisplay:10.37,2013-07-19 18:39:00,
2013-07-19 14:44:00,96.1,49.8,26.95,West,274,2.3,0.0,21,0.00,CLR,,0.00,WeatherDisplay:10.37,2013-07-19 18:44:00,
2013-07-19 14:49:00,95.5,49.4,26.95,WNW,299,3.5,3.5,21,0.00,CLR,,0.00,WeatherDisplay:10.37,2013-07-19 18:49:00,
2013-07-19 14:54:00,95.4,49.2,26.95,WSW,255,5.8,5.8,21,0.00,CLR,,0.00,WeatherDisplay:10.37,2013-07-19 18:54:00,
2013-07-19 14:59:00,95.4,49.2,26.95,WNW,301,3.6,3.6,21,0.00,CLR,,0.00,WeatherDisplay:10.37,2013-07-19 18:59:00,
2013-07-19 15:04:00,95.5,49.4,26.95,WSW,253,5.8,5.8,21,0.00,CLR,,0.00,WeatherDisplay:10.37,2013-07-19 19:04:00,
2013-07-19 15:09:00,95.2,49.1,26.95,NW,323,5.8,5.8,21,0.00,CLR,,0.00,WeatherDisplay:10.37,2013-07-19 19:09:00,
2013-07-19 15:14:00,95.2,49.1,26.95,ENE,78,3.5,3.5,21,0.00,CLR,,0.00,WeatherDisplay:10.37,2013-07-19 19:14:00,
2013-07-19 15:19:00,95.7,49.5,26.95,WSW,248,3.5,0.0,21,0.00,CLR,,0.00,WeatherDisplay:10.37,2013-07-19 19:19:00,
2013-07-19 15:24:00,95.2,49.1,26.95,WSW,244,2.7,2.7,21,0.00,CLR,,0.00,WeatherDisplay:10.37,2013-07-19 19:24:00,
2013-07-19 15:29:00,95.4,49.2,26.95,WSW,241,5.8,5.8,21,0.00,CLR,,0.00,WeatherDisplay:10.37,2013-07-19 19:29:00,
2013-07-19 15:34:00,95.2,49.1,26.95,West,266,4.0,4.0,21,0.00,CLR,,0.00,WeatherDisplay:10.37,2013-07-19 19:34:00,
2013-07-19 15:39:00,94.8,48.8,26.95,West,260,3.5,3.5,21,0.00,CLR,,0.00,WeatherDisplay:10.37,2013-07-19 19:39:00,
2013-07-19 15:44:00,94.6,48.6,26.95,WSW,238,8.1,8.1,21,0.00,CLR,,0.00,WeatherDisplay:10.37,2013-07-19 19:44:00,
2013-07-19 15:49:00,94.6,48.6,26.95,SW,236,5.8,5.8,21,0.00,CLR,,0.00,WeatherDisplay:10.37,2013-07-19 19:49:00,
2013-07-19 15:54:00,94.8,48.8,26.95,NW,306,6.9,6.9,21,0.00,CLR,,0.00,WeatherDisplay:10.37,2013-07-19 19:54:00,
2013-07-19 15:59:00,94.8,48.8,26.95,WNW,298,3.5,4.5,21,0.00,CLR,,0.00,WeatherDisplay:10.37,2013-07-19 19:59:00,
2013-07-19 16:04:00,94.8,48.8,26.95,NNW,342,5.8,5.8,21,0.00,CLR,,0.00,WeatherDisplay:10.37,2013-07-19 20:04:00,
2013-07-19 16:09:00,95.0,48.9,26.95,NW,308,5.8,5.8,21,0.00,CLR,,0.00,WeatherDisplay:10.37,2013-07-19 20:09:00,
2013-07-19 16:14:00,95.2,49.1,26.95,WSW,238,5.8,5.8,21,0.00,CLR,,0.00,WeatherDisplay:10.37,2013-07-19 20:14:00,
2013-07-19 16:19:00,95.7,49.5,26.95,NNW,338,3.5,0.0,21,0.00,CLR,,0.00,WeatherDisplay:10.37,2013-07-19 20:19:00,
2013-07-19 16:24:00,95.2,49.1,26.95,East,91,3.5,0.0,21,0.00,CLR,,0.00,WeatherDisplay:10.37,2013-07-19 20:24:00,
2013-07-19 16:29:00,94.5,48.5,26.95,WSW,251,3.5,3.5,21,0.00,CLR,,0.00,WeatherDisplay:10.37,2013-07-19 20:29:00,
2013-07-19 16:34:00,96.4,50.1,26.95,WSW,258,5.8,5.8,21,0.00,CLR,,0.00,WeatherDisplay:10.37,2013-07-19 20:34:00,
2013-07-19 16:39:00,95.5,49.4,26.95,WSW,245,5.8,5.8,21,0.00,CLR,,0.00,WeatherDisplay:10.37,2013-07-19 20:39:00,
2013-07-19 16:44:00,95.5,49.4,26.95,North,357,4.6,4.6,21,0.00,CLR,,0.00,WeatherDisplay:10.37,2013-07-19 20:44:00,
2013-07-19 16:49:00,95.2,49.1,26.95,West,264,4.6,4.6,21,0.00,CLR,,0.00,WeatherDisplay:10.37,2013-07-19 20:49:00,
2013-07-19 16:54:00,95.2,49.1,26.95,NNW,341,3.5,3.6,21,0.00,CLR,,0.00,WeatherDisplay:10.37,2013-07-19 20:54:00,
2013-07-19 16:59:00,95.0,48.9,26.95,West,275,3.5,3.5,21,0.00,CLR,,0.00,WeatherDisplay:10.37,2013-07-19 20:59:00,
2013-07-19 17:04:00,94.6,48.6,26.95,SW,233,3.5,3.5,21,0.00,CLR,,0.00,WeatherDisplay:10.37,2013-07-19 21:04:00,
2013-07-19 17:09:00,94.1,48.2,26.95,West,263,3.5,3.6,21,0.00,CLR,,0.00,WeatherDisplay:10.37,2013-07-19 21:09:00,
2013-07-19 17:14:00,94.1,48.2,26.95,SW,214,3.1,3.1,21,0.00,CLR,,0.00,WeatherDisplay:10.37,2013-07-19 21:14:00,
2013-07-19 17:19:00,93.7,47.9,26.95,WNW,285,5.4,5.4,21,0.00,CLR,,0.00,WeatherDisplay:10.37,2013-07-19 21:19:00,
2013-07-19 17:24:00,93.7,47.9,26.95,NW,307,3.5,3.5,21,0.00,CLR,,0.00,WeatherDisplay:10.37,2013-07-19 21:24:00,
2013-07-19 17:29:00,93.2,47.5,26.95,WNW,301,3.5,0.0,21,0.00,CLR,,0.00,WeatherDisplay:10.37,2013-07-19 21:29:00,
2013-07-19 17:34:00,93.0,48.6,26.95,West,280,5.8,5.8,22,0.00,CLR,,0.00,WeatherDisplay:10.37,2013-07-19 21:34:00,
2013-07-19 17:39:00,92.8,48.4,26.95,WNW,282,3.5,3.5,22,0.00,CLR,,0.00,WeatherDisplay:10.37,2013-07-19 21:39:00,
2013-07-19 17:44:00,92.8,48.4,26.95,West,261,3.5,3.6,22,0.00,CLR,,0.00,WeatherDisplay:10.37,2013-07-19 21:44:00,
2013-07-19 17:49:00,92.7,48.3,26.95,WNW,301,5.8,5.8,22,0.00,CLR,,0.00,WeatherDisplay:10.37,2013-07-19 21:49:00,
2013-07-19 17:54:00,92.3,48.0,26.95,WSW,239,3.5,3.5,22,0.00,CLR,,0.00,WeatherDisplay:10.37,2013-07-19 21:54:00,
2013-07-19 17:59:00,92.1,47.8,26.95,WSW,244,2.7,0.0,22,0.00,CLR,,0.00,WeatherDisplay:10.37,2013-07-19 21:59:00,
2013-07-19 18:04:00,91.9,43.8,26.95,NNE,30,3.5,0.0,19,0.00,CLR,,0.00,WeatherDisplay:10.37,2013-07-19 22:04:00,
2013-07-19 18:09:00,91.6,43.5,26.95,WSW,253,2.3,0.0,19,0.00,CLR,,0.00,WeatherDisplay:10.37,2013-07-19 22:09:00,
2013-07-19 18:14:00,91.6,43.5,26.95,NNE,16,3.5,3.5,19,0.00,CLR,,0.00,WeatherDisplay:10.37,2013-07-19 22:14:00,
2013-07-19 18:19:00,91.2,47.1,26.95,West,270,2.7,0.0,22,0.00,CLR,,0.00,WeatherDisplay:10.37,2013-07-19 22:19:00,
2013-07-19 18:24:00,90.9,44.2,26.95,WNW,284,3.5,0.0,20,0.00,CLR,,0.00,WeatherDisplay:10.37,2013-07-19 22:24:00,
2013-07-19 18:29:00,90.5,43.9,26.95,WSW,237,0.0,0.0,20,0.00,CLR,,0.00,WeatherDisplay:10.37,2013-07-19 22:29:00,
2013-07-19 18:34:00,90.1,43.7,26.95,SW,220,2.3,0.0,20,0.00,CLR,,0.00,WeatherDisplay:10.37,2013-07-19 22:34:00,
2013-07-19 18:39:00,90.0,43.5,26.95,West,266,2.7,0.0,20,0.00,CLR,,0.00,WeatherDisplay:10.37,2013-07-19 22:39:00,
2013-07-19 18:44:00,90.0,43.5,26.95,WSW,239,2.3,0.0,20,0.00,CLR,,0.00,WeatherDisplay:10.37,2013-07-19 22:44:00,
2013-07-19 18:49:00,90.0,43.5,26.95,WSW,244,3.5,3.5,20,0.00,CLR,,0.00,WeatherDisplay:10.37,2013-07-19 22:49:00,
2013-07-19 18:54:00,90.0,46.0,26.95,NW,308,3.5,0.0,22,0.00,CLR,,0.00,WeatherDisplay:10.37,2013-07-19 22:54:00,
2013-07-19 18:59:00,89.8,45.9,26.95,NW,311,3.5,3.5,22,0.00,CLR,,0.00,WeatherDisplay:10.37,2013-07-19 22:59:00,
2013-07-19 19:04:00,89.8,45.9,26.95,ENE,57,3.5,0.0,22,0.00,CLR,,0.00,WeatherDisplay:10.37,2013-07-19 23:04:00,
2013-07-19 19:09:00,89.6,45.7,26.95,West,274,2.3,0.0,22,0.00,CLR,,0.00,WeatherDisplay:10.37,2013-07-19 23:09:00,
2013-07-19 19:14:00,89.6,45.7,26.95,NE,47,2.3,0.0,22,0.00,CLR,,0.00,WeatherDisplay:10.37,2013-07-19 23:14:00,
2013-07-19 19:19:00,89.2,46.6,26.95,East,93,2.3,0.0,23,0.00,CLR,,0.00,WeatherDisplay:10.37,2013-07-19 23:19:00,
2013-07-19 19:24:00,89.1,46.4,26.95,NW,306,3.5,3.5,23,0.00,CLR,,0.00,WeatherDisplay:10.37,2013-07-19 23:24:00,
2013-07-19 19:29:00,89.1,46.4,26.95,North,1,3.5,0.0,23,0.00,CLR,,0.00,WeatherDisplay:10.37,2013-07-19 23:29:00,
2013-07-19 19:34:00,88.9,46.3,26.95,NE,38,3.5,0.0,23,0.00,CLR,,0.00,WeatherDisplay:10.37,2013-07-19 23:34:00,
2013-07-19 19:39:00,88.7,46.1,26.95,West,260,2.3,0.0,23,0.00,CLR,,0.00,WeatherDisplay:10.37,2013-07-19 23:39:00,
2013-07-19 19:44:00,88.7,46.1,26.95,SW,223,0.0,0.0,23,0.00,CLR,,0.00,WeatherDisplay:10.37,2013-07-19 23:44:00,
2013-07-19 19:49:00,88.3,45.8,26.95,West,271,0.0,0.0,23,0.00,CLR,,0.00,WeatherDisplay:10.37,2013-07-19 23:49:00,
2013-07-19 19:54:00,88.2,45.7,26.95,ESE,112,0.0,0.0,23,0.00,CLR,,0.00,WeatherDisplay:10.37,2013-07-19 23:54:00,
2013-07-19 20:00:00,87.6,45.2,26.95,ESE,102,0.0,0.0,23,0.00,CLR,,0.00,WeatherDisplay:10.37,2013-07-20 00:00:00,
2013-07-19 20:05:00,87.6,45.2,26.95,NNW,340,0.0,0.0,23,0.00,CLR,,0.00,WeatherDisplay:10.37,2013-07-20 00:05:00,
2013-07-19 20:10:00,87.4,45.1,26.95,NNE,24,2.3,0.0,23,0.00,CLR,,0.00,WeatherDisplay:10.37,2013-07-20 00:10:00,
2013-07-19 20:15:00,87.3,44.9,26.95,NNE,23,2.3,0.0,23,0.00,CLR,,0.00,WeatherDisplay:10.37,2013-07-20 00:15:00,
2013-07-19 20:20:00,87.1,44.8,26.95,ENE,65,0.0,0.0,23,0.00,CLR,,0.00,WeatherDisplay:10.37,2013-07-20 00:20:00,
2013-07-19 20:25:00,87.1,44.8,26.95,North,11,0.0,0.0,23,0.00,CLR,,0.00,WeatherDisplay:10.37,2013-07-20 00:25:00,
2013-07-19 20:30:00,86.9,44.6,26.95,SSW,201,0.0,0.0,23,0.00,CLR,,0.00,WeatherDisplay:10.37,2013-07-20 00:30:00,
2013-07-19 20:35:00,86.9,44.6,26.95,NNE,24,0.0,0.0,23,0.00,CLR,,0.00,WeatherDisplay:10.37,2013-07-20 00:35:00,
2013-07-19 20:40:00,86.7,44.5,26.95,NNE,32,0.0,0.0,23,0.00,CLR,,0.00,WeatherDisplay:10.37,2013-07-20 00:40:00,
2013-07-19 20:45:00,86.7,44.5,26.95,NNW,338,3.5,0.0,23,0.00,CLR,,0.00,WeatherDisplay:10.37,2013-07-20 00:45:00,
2013-07-19 20:50:00,86.7,44.5,26.95,NNW,339,0.0,0.0,23,0.00,CLR,,0.00,WeatherDisplay:10.37,2013-07-20 00:50:00,
2013-07-19 20:55:00,86.4,44.2,26.95,NNW,339,0.0,0.0,23,0.00,CLR,,0.00,WeatherDisplay:10.37,2013-07-20 00:55:00,
2013-07-19 21:00:00,86.4,44.2,26.95,SW,217,0.0,0.0,23,0.00,CLR,,0.00,WeatherDisplay:10.37,2013-07-20 01:00:00,
2013-07-19 21:05:00,86.0,43.9,26.95,East,84,2.3,0.0,23,0.00,CLR,,0.00,WeatherDisplay:10.37,2013-07-20 01:05:00,
2013-07-19 21:10:00,85.8,43.7,26.95,NE,41,2.3,0.0,23,0.00,CLR,,0.00,WeatherDisplay:10.37,2013-07-20 01:10:00,
2013-07-19 21:15:00,85.6,43.6,26.95,NE,54,3.5,0.0,23,0.00,CLR,,0.00,WeatherDisplay:10.37,2013-07-20 01:15:00,
2013-07-19 21:20:00,85.6,43.6,26.95,NE,43,0.0,0.0,23,0.00,CLR,,0.00,WeatherDisplay:10.37,2013-07-20 01:20:00,
2013-07-19 21:25:00,85.6,46.8,26.95,WNW,293,0.0,0.0,26,0.00,CLR,,0.00,WeatherDisplay:10.37,2013-07-20 01:25:00,
2013-07-19 21:30:00,85.6,46.8,26.95,ENE,65,3.5,3.5,26,0.00,CLR,,0.00,WeatherDisplay:10.37,2013-07-20 01:30:00,
2013-07-19 21:35:00,85.6,46.8,26.95,SSW,213,0.0,0.0,26,0.00,CLR,,0.00,WeatherDisplay:10.37,2013-07-20 01:35:00,
2013-07-19 21:40:00,85.5,46.7,26.95,SSW,210,0.0,0.0,26,0.00,CLR,,0.00,WeatherDisplay:10.37,2013-07-20 01:40:00,
2013-07-19 21:45:00,85.3,46.5,26.95,NE,54,5.8,0.0,26,0.00,CLR,,0.00,WeatherDisplay:10.37,2013-07-20 01:45:00,
2013-07-19 21:50:00,85.1,46.4,26.95,ENE,74,3.5,0.0,26,0.00,CLR,,0.00,WeatherDisplay:10.37,2013-07-20 01:50:00,
2013-07-19 21:55:00,84.9,46.2,26.95,East,82,0.0,0.0,26,0.00,CLR,,0.00,WeatherDisplay:10.37,2013-07-20 01:55:00,
2013-07-19 22:00:00,84.9,46.2,26.95,SW,222,3.5,0.0,26,0.00,CLR,,0.00,WeatherDisplay:10.37,2013-07-20 02:00:00,
2013-07-19 22:05:00,85.1,46.4,26.95,ENE,63,0.0,0.0,26,0.00,CLR,,0.00,WeatherDisplay:10.37,2013-07-20 02:05:00,
2013-07-19 22:10:00,84.9,46.2,26.95,ENE,63,2.3,0.0,26,0.00,CLR,,0.00,WeatherDisplay:10.37,2013-07-20 02:10:00,
2013-07-19 22:15:00,84.7,46.0,26.95,WSW,245,3.5,0.0,26,0.00,CLR,,0.00,WeatherDisplay:10.37,2013-07-20 02:15:00,
2013-07-19 22:20:00,84.6,45.9,26.95,East,99,0.0,0.0,26,0.00,CLR,,0.00,WeatherDisplay:10.37,2013-07-20 02:20:00,
2013-07-19 22:25:00,84.6,45.9,26.95,North,357,0.0,0.0,26,0.00,CLR,,0.00,WeatherDisplay:10.37,2013-07-20 02:25:00,
2013-07-19 22:30:00,84.4,47.7,26.95,SW,235,2.3,0.0,28,0.00,CLR,,0.00,WeatherDisplay:10.37,2013-07-20 02:30:00,
2013-07-19 22:35:00,84.2,47.6,26.95,SW,222,2.3,0.0,28,0.00,CLR,,0.00,WeatherDisplay:10.37,2013-07-20 02:35:00,
2013-07-19 22:40:00,84.2,47.6,26.95,WSW,244,0.0,0.0,28,0.00,CLR,,0.00,WeatherDisplay:10.37,2013-07-20 02:40:00,
2013-07-19 22:45:00,84.0,48.3,26.95,WSW,245,0.0,0.0,29,0.00,CLR,,0.00,WeatherDisplay:10.37,2013-07-20 02:45:00,
2013-07-19 22:50:00,84.0,48.3,26.95,SW,231,0.0,0.0,29,0.00,CLR,,0.00,WeatherDisplay:10.37,2013-07-20 02:50:00,
2013-07-19 22:55:00,83.8,48.2,26.95,NNW,334,3.6,0.0,29,0.00,CLR,,0.00,WeatherDisplay:10.37,2013-07-20 02:55:00,
2013-07-19 23:00:00,83.8,48.2,26.95,NW,313,2.3,0.0,29,0.00,CLR,,0.00,WeatherDisplay:10.37,2013-07-20 03:00:00,
2013-07-19 23:05:00,83.8,48.2,26.95,NW,313,0.0,0.0,29,0.00,CLR,,0.00,WeatherDisplay:10.37,2013-07-20 03:05:00,
2013-07-19 23:10:00,83.8,48.2,26.95,ENE,75,0.0,0.0,29,0.00,CLR,,0.00,WeatherDisplay:10.37,2013-07-20 03:10:00,
2013-07-19 23:15:00,83.8,48.2,26.95,ENE,74,0.0,0.0,29,0.00,CLR,,0.00,WeatherDisplay:10.37,2013-07-20 03:15:00,
2013-07-19 23:20:00,83.7,48.0,26.95,East,91,2.3,0.0,29,0.00,CLR,,0.00,WeatherDisplay:10.37,2013-07-20 03:20:00,
2013-07-19 23:25:00,83.5,47.9,26.95,NNE,27,3.5,0.0,29,0.00,CLR,,0.00,WeatherDisplay:10.37,2013-07-20 03:25:00,
2013-07-19 23:30:00,83.5,47.9,26.95,WSW,250,0.0,0.0,29,0.00,CLR,,0.00,WeatherDisplay:10.37,2013-07-20 03:30:00,
2013-07-19 23:35:00,83.3,47.7,26.95,NNW,339,0.0,0.0,29,0.00,CLR,,0.00,WeatherDisplay:10.37,2013-07-20 03:35:00,
2013-07-19 23:40:00,83.3,47.7,26.95,NW,315,3.5,0.0,29,0.00,CLR,,0.00,WeatherDisplay:10.37,2013-07-20 03:40:00,
2013-07-19 23:45:00,83.1,47.6,26.95,NW,315,2.2,0.0,29,0.00,CLR,,0.00,WeatherDisplay:10.37,2013-07-20 03:45:00,
2013-07-19 23:50:00,83.1,47.6,26.95,East,95,0.0,0.0,29,0.00,CLR,,0.00,WeatherDisplay:10.37,2013-07-20 03:50:00,
2013-07-19 23:55:00,83.1,47.6,26.95,East,88,0.0,0.0,29,0.00,CLR,,0.00,WeatherDisplay:10.37,2013-07-20 03:55:00,